N7MLR Weather Reports


time (UTC)temp
F
wind
direction
speed
knots
gust
knots
rain 1hr
in
rain 24hr
in
rain mn
in
humidity
%
barometer
mb
20260509183411 90 146 2.6 2.6 0.00 0.01 0.01 58 1010.4
20260509182908 90 161 1.7 1.7 0.00 0.01 0.01 58 1010.4
20260509182405 89 175 0.9 1.7 0.00 0.01 0.01 58 1010.6
20260509181902 89 179 1.7 1.7 0.00 0.01 0.01 60 1010.5
20260509181400 88 181 0.9 1.7 0.00 0.01 0.01 62 1010.7
20260509180857 86 191 0.0 0.9 0.00 0.01 0.01 64 1010.7
20260509180352 87 196 0.9 0.9 0.00 0.01 0.01 64 1010.9
20260509175850 87 197 0.9 0.9 0.00 0.01 0.01 64 1010.7
20260509175345 85 185 0.9 0.9 0.00 0.01 0.01 66 1010.9
20260509174841 86 184 1.7 1.7 0.00 0.01 0.01 66 1010.9
20260509174338 86 217 0.9 0.9 0.00 0.01 0.01 67 1010.8
20260509173834 86 132 1.7 1.7 0.00 0.01 0.01 66 1010.7
20260509173329 86 226 0.9 1.7 0.00 0.01 0.01 65 1010.9
20260509172825 85 161 1.7 2.6 0.00 0.01 0.01 69 1011.2
20260509172322 86 172 2.6 2.6 0.00 0.01 0.01 67 1011.3
20260509171819 85 220 0.9 0.9 0.00 0.01 0.01 68 1011.3
20260509171314 86 189 0.9 0.9 0.00 0.01 0.01 69 1011.2
20260509170811 86 165 1.7 1.7 0.00 0.01 0.01 68 1011.4
20260509170307 84 176 0.9 1.7 0.00 0.01 0.01 72 1011.2
20260509165806 83 180 0.9 1.7 0.00 0.01 0.01 74 1011.2
20260509165301 84 185 0.9 0.9 0.00 0.01 0.01 74 1011.4
20260509164757 83 189 0.9 0.9 0.00 0.01 0.01 75 1011.5
20260509164253 82 176 0.9 1.7 0.00 0.01 0.01 76 1011.4
20260509163750 81 195 0.9 0.9 0.00 0.01 0.01 78 1011.6
20260509163247 80 191 0.9 0.9 0.00 0.01 0.01 78 1011.4
20260509162746 81 193 0.0 0.0 0.00 0.01 0.01 78 1011.5
20260509162239 81 224 0.0 0.9 0.00 0.01 0.01 78 1011.2
20260509161736 82 229 0.9 1.7 0.00 0.01 0.01 78 1011.7
20260509161232 82 192 0.9 0.9 0.00 0.01 0.01 78 1011.7
20260509160727 79 181 0.0 0.0 0.00 0.01 0.01 83 1011.7
20260509160224 78 184 0.0 0.0 0.00 0.01 0.01 85 1011.8
20260509155718 78 185 0.9 0.9 0.00 0.01 0.01 84 1012.1
20260509155216 79 198 0.9 1.7 0.00 0.01 0.01 82 1011.7
20260509154712 77 215 0.9 0.9 0.00 0.01 0.01 86 1011.8
20260509154209 76 223 0.0 0.0 0.00 0.01 0.01 90 1012.1
20260509153706 76 223 0.0 0.9 0.00 0.01 0.01 90 1012.0
20260509153202 75 232 0.9 0.9 0.00 0.01 0.01 90 1011.5
20260509152658 75 231 0.0 0.0 0.00 0.01 0.01 91 1011.6
20260509152155 75 220 0.9 0.9 0.00 0.01 0.01 91 1011.7
20260509151652 75 194 0.0 0.0 0.00 0.01 0.01 91 1011.5
20260509151149 75 222 1.7 1.7 0.00 0.01 0.01 91 1011.4
20260509150647 75 182 0.9 1.7 0.00 0.01 0.01 93 1011.7
20260509150145 74 231 0.9 1.7 0.00 0.01 0.01 94 1011.3
20260509145641 74 265 1.7 1.7 0.00 0.01 0.01 94 1011.3
20260509145136 74 217 1.7 1.7 0.00 0.01 0.01 96 1011.4
20260509144633 73 208 1.7 2.6 0.00 0.01 0.01 97 1011.5
20260509144130 73 218 0.9 0.9 0.00 0.01 0.01 98 1011.6
20260509143627 72 190 0.9 0.9 0.00 0.01 0.01 99 1011.8
20260509143125 72 190 0.0 0.0 0.00 0.01 0.01 99 1011.6
20260509142620 71 191 0.0 0.0 0.00 0.01 0.01 99 1011.3
20260509142117 72 191 0.0 0.0 0.00 0.01 0.01 99 1011.3
20260509141613 72 191 0.9 0.9 0.00 0.01 0.01 99 1011.4
20260509141109 72 190 0.0 0.9 0.00 0.01 0.01 99 1011.5
20260509140606 72 189 0.9 1.7 0.00 0.01 0.01 99 1011.5
20260509140104 72 197 0.0 0.0 0.00 0.01 0.01 99 1011.6
20260509135601 72 196 0.0 0.9 0.00 0.01 0.01 99 1011.4
20260509135059 72 196 0.0 0.0 0.00 0.01 0.01 99 1011.4
20260509134555 71 197 0.0 0.0 0.00 0.01 0.01 99 1011.2
20260509134053 71 197 0.0 0.9 0.00 0.01 0.01 99 1011.2
20260509133550 71 197 0.0 0.0 0.00 0.01 0.01 99 1011.2
20260509133048 71 197 0.0 0.0 0.00 0.01 0.01 99 1011.2
20260509132546 71 197 0.0 0.0 0.00 0.01 0.01 99 1011.2
20260509132044 71 197 0.0 0.0 0.00 0.01 0.01 99 1011.2
20260509131539 71 196 0.0 0.0 0.00 0.01 0.01 99 1010.8
20260509131037 71 196 0.0 0.0 0.00 0.01 0.01 99 1011.2
20260509130532 71 197 0.0 0.0 0.00 0.01 0.01 99 1011.3
20260509130029 71 197 0.0 0.0 0.00 0.01 0.01 99 1011.3
20260509125526 71 196 0.9 0.9 0.00 0.01 0.01 99 1011.2
20260509125022 71 197 0.0 0.0 0.00 0.01 0.01 99 1011.2
20260509124519 72 196 0.0 0.0 0.00 0.01 0.01 99 1010.9
20260509124016 71 198 0.0 0.9 0.00 0.01 0.01 99 1010.9
20260509123514 71 198 0.9 0.9 0.00 0.01 0.01 99 1010.9
20260509123010 71 204 0.0 0.9 0.00 0.01 0.01 99 1010.8
20260509122507 71 225 0.0 0.9 0.00 0.01 0.01 99 1010.7
20260509122004 71 233 0.0 0.0 0.00 0.01 0.01 99 1010.9
20260509121500 71 225 0.0 0.0 0.00 0.01 0.01 99 1010.9
20260509120958 71 226 0.0 0.0 0.00 0.01 0.01 99 1011.2
20260509120456 71 209 0.0 0.0 0.00 0.01 0.01 99 1011.1
20260509115954 71 203 0.0 0.9 0.00 0.01 0.01 99 1011.1
20260509115451 71 170 1.7 2.6 0.00 0.01 0.01 99 1011.2
20260509114948 71 202 1.7 1.7 0.00 0.01 0.01 99 1010.9
20260509114446 71 190 0.9 0.9 0.00 0.01 0.01 99 1011.1
20260509113945 71 188 1.7 1.7 0.00 0.01 0.01 99 1011.3
20260509113442 71 184 0.9 1.7 0.00 0.01 0.01 99 1011.2
20260509112939 71 207 1.7 2.6 0.00 0.01 0.01 99 1011.3
20260509112437 71 206 0.9 0.9 0.00 0.01 0.01 99 1011.4
20260509111933 71 206 0.9 0.9 0.00 0.01 0.01 99 1011.5
20260509111431 71 213 0.9 1.7 0.00 0.01 0.01 99 1011.3
20260509110928 71 198 0.9 0.9 0.00 0.01 0.01 99 1011.4
20260509110423 71 207 0.9 1.7 0.00 0.01 0.01 99 1011.2
20260509105922 71 204 1.7 1.7 0.00 0.01 0.01 99 1011.2
20260509105420 71 193 0.9 0.9 0.00 0.01 0.01 99 1011.1
20260509104917 71 200 0.9 0.9 0.00 0.01 0.01 99 1010.7
20260509104414 71 193 0.0 0.9 0.00 0.01 0.01 99 1010.9
20260509103911 71 200 0.0 0.0 0.00 0.01 0.01 99 1010.8
20260509103408 71 200 0.0 0.0 0.00 0.01 0.01 99 1010.8
20260509102907 71 200 0.0 0.0 0.00 0.01 0.01 99 1010.8
20260509102404 71 200 0.0 0.0 0.00 0.01 0.01 99 1011.1
20260509101859 71 200 0.0 0.0 0.00 0.01 0.01 99 1011.1
20260509101355 71 200 0.0 0.0 0.05 0.01 0.01 99 1010.9
20260509100854 71 200 0.0 0.0 0.05 0.01 0.01 99 1010.7
20260509100350 71 200 0.9 0.9 0.00 0.00 0.00 99 1010.5
20260509095847 71 200 0.0 0.0 0.00 0.00 0.00 99 1010.3
20260509095345 71 200 0.9 0.9 0.00 0.00 0.00 99 1010.2
20260509094842 71 200 0.0 0.0 0.00 0.00 0.00 99 1010.4
20260509094338 71 200 0.0 0.0 0.00 0.00 0.00 99 1010.0
20260509093836 71 200 0.0 0.0 0.00 0.00 0.00 99 1010.2
20260509093332 71 200 0.0 0.9 0.00 0.00 0.00 99 1010.0
20260509092831 71 200 0.0 0.9 0.00 0.00 0.00 99 1010.3
20260509092329 72 200 0.0 0.9 0.00 0.00 0.00 99 1010.2
20260509091827 72 200 0.9 0.9 0.00 0.00 0.00 98 1010.4
20260509091323 72 200 0.9 0.9 0.00 0.00 0.00 98 1010.2
20260509090820 72 200 0.0 0.9 0.00 0.00 0.00 98 1010.0
20260509090318 72 200 0.0 0.0 0.00 0.00 0.00 98 1009.9
20260509085815 72 200 0.9 0.9 0.00 0.00 0.00 98 1010.1
20260509085313 72 200 0.0 0.0 0.00 0.00 0.00 99 1010.0
20260509084809 72 202 0.9 0.9 0.00 0.00 0.00 99 1009.9
20260509084306 72 227 0.0 0.9 0.00 0.00 0.00 99 1009.9
20260509083803 71 230 0.0 0.0 0.00 0.00 0.00 99 1010.1
20260509083300 71 230 0.0 0.0 0.00 0.00 0.00 99 1010.1
20260509082756 71 229 0.9 0.9 0.00 0.00 0.00 98 1010.3
20260509082253 71 229 0.0 0.0 0.00 0.00 0.00 98 1010.3
20260509081750 71 229 0.0 0.0 0.00 0.00 0.00 98 1010.2
20260509081248 71 229 0.0 0.0 0.00 0.00 0.00 98 1010.3
20260509080746 71 229 0.0 0.0 0.00 0.00 0.00 98 1010.1
20260509080243 71 229 0.0 0.0 0.00 0.00 0.00 98 1010.0
20260509075741 71 229 0.0 0.0 0.00 0.00 0.00 98 1010.2
20260509075238 72 230 0.9 0.9 0.00 0.00 0.00 98 1009.8
20260509074735 72 229 0.0 0.0 0.00 0.00 0.00 98 1009.9
20260509074233 72 229 0.0 0.0 0.00 0.00 0.00 98 1010.0
20260509073729 71 229 0.0 0.0 0.00 0.00 0.00 98 1010.1
20260509073225 72 229 0.0 0.0 0.00 0.00 0.00 98 1009.9
20260509072722 72 218 0.0 0.0 0.00 0.00 0.00 98 1010.0
20260509072219 72 218 0.0 0.0 0.00 0.00 0.00 97 1010.0
20260509071716 72 218 0.0 0.0 0.00 0.00 0.00 97 1009.9
20260509071213 72 218 0.0 0.9 0.00 0.00 0.00 97 1010.0
20260509070710 72 226 0.0 0.0 0.00 0.00 0.00 97 1010.0
20260509070206 72 215 0.0 0.0 0.00 0.00 0.00 97 1010.2
20260509065702 72 216 0.0 0.9 0.00 0.00 0.00 97 1010.1
20260509065158 72 227 0.0 0.0 0.00 0.00 0.00 96 1010.1
20260509064655 72 222 0.9 0.9 0.00 0.00 0.00 96 1010.2
20260509064153 72 222 0.9 0.9 0.00 0.00 0.00 96 1010.1
20260509063650 72 222 0.0 0.0 0.00 0.00 0.00 95 1010.4
20260509063146 72 201 0.9 0.9 0.00 0.00 0.00 94 1010.3
20260509062643 73 197 0.9 0.9 0.00 0.00 0.00 93 1010.5
20260509062141 73 203 0.0 0.0 0.00 0.00 0.00 92 1010.1
20260509061637 73 197 0.0 0.9 0.00 0.00 0.00 93 1010.2
20260509061135 72 198 0.9 0.9 0.00 0.00 0.00 95 1010.1
20260509060632 71 213 0.9 0.9 0.00 0.00 0.00 97 1010.1
20260509060128 71 204 0.9 0.9 0.00 0.00 0.00 97 1010.5
20260509055624 71 204 0.0 0.9 0.00 0.00 0.00 97 1010.4
20260509055120 71 204 0.0 0.9 0.00 0.00 0.00 97 1010.7
20260509054617 71 204 0.0 0.0 0.00 0.00 0.00 97 1010.8
20260509054115 71 209 0.9 0.9 0.00 0.00 0.00 97 1010.6
20260509053613 71 192 0.9 0.9 0.00 0.00 0.00 97 1010.5
20260509053109 71 194 0.0 0.9 0.00 0.00 0.00 97 1010.6
20260509052607 71 186 0.0 0.9 0.00 0.00 0.00 97 1010.8
20260509052105 71 186 0.0 0.0 0.00 0.00 0.00 97 1010.8
20260509051603 71 191 0.9 1.7 0.00 0.00 0.00 97 1010.9
20260509051059 71 188 0.9 0.9 0.00 0.00 0.00 97 1011.1
20260509050556 71 196 0.9 0.9 0.00 0.00 0.00 97 1010.9
20260509050052 71 197 0.0 0.0 0.00 0.00 0.00 97 1010.7
20260509045551 70 196 0.0 0.0 0.00 0.01 0.01 97 1010.6
20260509045047 70 196 0.0 0.0 0.00 0.01 0.01 97 1010.8
20260509044544 70 196 0.0 0.9 0.00 0.01 0.01 97 1010.6
20260509044042 70 196 0.0 0.0 0.00 0.01 0.01 97 1010.3
20260509043538 70 197 0.0 0.0 0.00 0.01 0.01 96 1010.1
20260509043034 69 197 0.0 0.0 0.00 0.01 0.01 96 1010.3
20260509042530 69 197 0.0 0.0 0.00 0.01 0.01 96 1010.4
20260509042026 69 197 0.0 0.0 0.00 0.01 0.01 95 1010.1
20260509041523 70 197 0.0 0.0 0.00 0.01 0.01 95 1010.0
20260509041021 70 197 0.9 0.9 0.00 0.01 0.01 95 1009.7
20260509040519 70 197 0.0 0.0 0.00 0.01 0.01 94 1009.7
20260509040016 71 197 0.0 0.0 0.00 0.01 0.01 93 1009.8
20260509035513 71 196 0.0 0.0 0.00 0.01 0.01 93 1010.0
20260509035009 71 196 0.0 0.9 0.00 0.01 0.01 93 1010.4
20260509034508 72 197 0.9 0.9 0.00 0.01 0.01 93 1010.3
20260509034004 71 197 0.9 0.9 0.00 0.01 0.01 94 1010.2
20260509033501 71 197 0.0 0.9 0.00 0.01 0.01 94 1010.1
20260509032957 71 197 0.9 0.9 0.00 0.01 0.01 94 1010.0
20260509032455 71 200 0.0 0.0 0.00 0.01 0.01 94 1010.0
20260509031952 71 200 0.0 0.0 0.00 0.01 0.01 94 1010.2
20260509031449 71 200 0.0 0.0 0.00 0.01 0.01 94 1010.0
20260509030947 71 200 0.0 0.0 0.00 0.01 0.01 93 1010.0
20260509030445 71 200 0.0 0.0 0.00 0.01 0.01 93 1009.9
20260509025942 71 200 0.0 0.0 0.00 0.01 0.01 93 1010.0
20260509025437 71 200 0.0 0.0 0.00 0.01 0.01 93 1009.8
20260509024933 71 200 0.0 0.0 0.00 0.01 0.01 93 1009.9
20260509024429 71 200 0.0 0.0 0.00 0.01 0.01 93 1009.8
20260509023926 71 200 0.0 0.0 0.00 0.01 0.01 92 1009.8
20260509023423 71 200 0.0 0.0 0.00 0.01 0.01 92 1009.6
20260509022919 71 200 0.0 0.0 0.00 0.01 0.01 91 1009.6
20260509022417 72 200 0.0 0.0 0.00 0.01 0.01 91 1009.7
20260509021914 72 200 0.0 0.0 0.00 0.01 0.01 90 1009.7
20260509021411 72 200 0.0 0.0 0.00 0.01 0.01 90 1009.5
20260509020909 73 202 0.0 0.0 0.00 0.01 0.01 88 1009.4
20260509020407 73 202 0.0 0.9 0.00 0.01 0.01 88 1009.2
20260509015903 73 202 0.0 0.9 0.00 0.01 0.01 88 1009.1
20260509015403 73 209 0.9 0.9 0.00 0.01 0.01 89 1009.1
20260509014858 73 215 0.9 0.9 0.00 0.01 0.01 89 1009.1
20260509014355 73 219 0.0 0.9 0.00 0.01 0.01 89 1009.0
20260509013852 72 222 0.0 0.9 0.00 0.01 0.01 90 1009.0
20260509013348 72 221 0.0 0.0 0.00 0.01 0.01 89 1008.9
20260509012844 73 221 0.0 0.0 0.00 0.01 0.01 89 1008.8
20260509012341 73 219 0.0 0.0 0.00 0.01 0.01 88 1008.7
20260509011838 73 218 0.0 0.0 0.00 0.01 0.01 88 1008.8
20260509011335 73 217 0.0 0.0 0.00 0.01 0.01 87 1008.8
20260509010827 74 217 0.0 0.9 0.00 0.01 0.01 87 1008.6
20260509010325 74 208 0.0 0.0 0.00 0.01 0.01 86 1008.8
20260509005822 75 208 0.0 0.0 0.00 0.01 0.01 85 1008.9
20260509005319 75 205 0.9 0.9 0.00 0.01 0.01 84 1008.7
20260509004814 75 210 0.9 0.9 0.00 0.01 0.01 84 1008.9
20260509004310 76 212 0.9 0.9 0.00 0.01 0.01 83 1008.7
20260509003808 76 207 0.0 0.9 0.00 0.01 0.01 83 1008.6
20260509003306 76 216 0.0 0.9 0.00 0.01 0.01 82 1008.7
20260509002803 75 222 0.9 0.9 0.00 0.01 0.01 84 1008.8
20260509002301 75 222 0.0 0.9 0.00 0.01 0.01 84 1008.9
20260509001758 75 217 0.0 0.0 0.00 0.01 0.01 84 1008.8
20260509001254 75 237 0.0 0.0 0.00 0.01 0.01 84 1008.7
20260509000752 75 237 1.7 2.6 0.00 0.01 0.01 83 1008.7
20260509000248 75 235 0.0 0.9 0.00 0.01 0.01 83 1008.7
20260508235746 75 240 0.9 0.9 0.00 0.01 0.01 83 1008.9
20260508235242 75 233 0.0 0.9 0.00 0.01 0.01 83 1009.0
20260508234740 76 233 0.0 0.0 0.00 0.01 0.01 83 1009.0
20260508234235 76 221 0.9 0.9 0.00 0.01 0.01 83 1009.0
20260508233730 76 220 0.0 0.0 0.00 0.01 0.01 83 1009.0
20260508233227 76 222 0.9 0.9 0.00 0.01 0.01 82 1008.9
20260508232724 76 228 0.9 0.9 0.00 0.01 0.01 82 1008.8
20260508232221 77 227 0.9 0.9 0.00 0.01 0.01 82 1008.8
20260508231719 77 220 0.0 0.0 0.00 0.01 0.01 81 1008.7
20260508231215 78 223 0.9 0.9 0.00 0.01 0.01 80 1008.7
20260508230712 78 208 0.9 0.9 0.00 0.01 0.01 80 1008.9
20260508230208 78 212 0.9 0.9 0.00 0.01 0.01 80 1009.1
20260508225706 78 205 0.9 0.9 0.00 0.01 0.01 79 1008.9
20260508225202 78 218 0.9 1.7 0.00 0.01 0.01 80 1008.9
20260508224700 77 176 1.7 1.7 0.00 0.01 0.01 81 1008.9
20260508224157 76 178 1.7 1.7 0.00 0.01 0.01 82 1009.0
20260508223655 76 230 0.9 1.7 0.00 0.01 0.01 82 1008.8
20260508223152 76 243 1.7 2.6 0.00 0.01 0.01 83 1009.1
20260508222650 76 270 2.6 2.6 0.00 0.01 0.01 82 1009.1
20260508222147 76 214 0.9 0.9 0.00 0.01 0.01 82 1009.0
20260508221643 76 226 0.9 0.9 0.00 0.01 0.01 82 1009.0
20260508221139 76 238 0.0 0.0 0.00 0.01 0.01 82 1009.0
20260508220636 76 224 0.9 0.9 0.00 0.01 0.01 82 1009.1
20260508220132 76 218 0.0 0.0 0.00 0.01 0.01 83 1009.0
20260508215629 76 229 0.9 0.9 0.00 0.01 0.01 83 1009.1
20260508215125 76 235 0.9 1.7 0.00 0.01 0.01 83 1009.1
20260508214622 75 231 0.0 0.9 0.00 0.01 0.01 83 1009.2
20260508214119 76 231 0.9 0.9 0.00 0.01 0.01 82 1009.2
20260508213616 76 253 0.9 1.7 0.00 0.01 0.01 82 1009.0
20260508213112 77 234 0.9 0.9 0.00 0.01 0.01 80 1009.3
20260508212609 77 224 0.9 1.7 0.00 0.01 0.01 79 1009.2
20260508212106 77 223 0.9 0.9 0.00 0.01 0.01 81 1009.4
20260508211601 77 208 0.9 0.9 0.00 0.01 0.01 79 1009.5
20260508211057 78 200 0.9 0.9 0.00 0.01 0.01 79 1009.6
20260508210554 78 195 0.9 0.9 0.00 0.01 0.01 78 1009.5
20260508210051 78 216 0.9 0.9 0.00 0.01 0.01 78 1009.4
20260508205549 79 216 0.0 0.9 0.00 0.01 0.01 77 1009.7
20260508205045 78 210 1.7 2.6 0.00 0.01 0.01 77 1009.6
20260508204541 78 235 0.0 0.9 0.00 0.01 0.01 78 1009.9
20260508204037 78 223 0.9 0.9 0.00 0.01 0.01 79 1009.7
20260508203534 78 227 0.9 0.9 0.00 0.01 0.01 79 1010.0
20260508203030 77 218 0.0 0.9 0.00 0.01 0.01 79 1010.0
20260508202527 78 252 1.7 2.6 0.00 0.01 0.01 79 1010.1
20260508202024 78 217 0.9 1.7 0.00 0.01 0.01 78 1009.9
20260508201520 78 208 0.9 0.9 0.00 0.01 0.01 79 1010.0
20260508201017 78 223 0.9 0.9 0.00 0.01 0.01 78 1010.0
20260508200514 77 224 0.9 0.9 0.00 0.01 0.01 79 1010.3
20260508200010 77 212 0.9 0.9 0.00 0.01 0.01 79 1010.2
20260508195507 77 272 1.7 2.6 0.00 0.01 0.01 80 1010.2
20260508195003 76 302 1.7 2.6 0.00 0.01 0.01 80 1010.1
20260508194500 76 23 2.6 4.3 0.00 0.01 0.01 81 1010.3
20260508193957 76 202 0.9 0.9 0.00 0.01 0.01 80 1010.5
20260508193453 76 230 0.9 1.7 0.00 0.01 0.01 80 1010.5
20260508192950 76 209 0.9 0.9 0.00 0.01 0.01 80 1010.4
20260508192447 76 244 0.9 1.7 0.00 0.01 0.01 80 1010.5
20260508191944 76 216 0.9 1.7 0.00 0.01 0.01 79 1010.4
20260508191441 76 197 0.9 1.7 0.00 0.01 0.01 80 1010.6
20260508190937 75 219 1.7 1.7 0.00 0.01 0.01 82 1010.7
20260508190435 74 269 1.7 1.7 0.00 0.01 0.01 81 1010.8
20260508185931 74 238 0.0 0.9 0.00 0.01 0.01 81 1010.6
20260508185428 74 239 0.9 0.9 0.00 0.01 0.01 82 1010.9
20260508184925 73 231 0.0 0.0 0.00 0.01 0.01 82 1010.9
20260508184423 73 234 0.0 0.9 0.00 0.01 0.01 82 1011.2
20260508183919 72 222 0.9 0.9 0.00 0.01 0.01 84 1010.9